| time (UTC) | temp F | wind direction | speed MPH | gust MPH | rain 1hr in | rain 24hr in | rain mn in | humidity % | barometer mb |
| 20260905083020 | 87 | 299 | 6.0 | 15.0 | 0.00 | 0.00 | 0.00 | 36 | 1015.9 |
| 20260905081513 | 87 | 341 | 5.0 | 16.0 | 0.00 | 0.00 | 0.00 | 36 | 1016.0 |
| 20260905080011 | 86 | 79 | 2.0 | 14.0 | 0.00 | 0.00 | 0.00 | 37 | 1015.8 |
| 20260905074510 | 85 | 8 | 5.0 | 13.0 | 0.00 | 0.00 | 0.00 | 39 | 1015.9 |
| 20260905073100 | 85 | 45 | 3.0 | 11.0 | 0.00 | 0.00 | 0.00 | 40 | 1015.7 |
| 20260905071556 | 85 | 312 | 7.0 | 14.0 | 0.00 | 0.00 | 0.00 | 41 | 1015.6 |
| 20260905064548 | 84 | 54 | 3.0 | 12.0 | 0.00 | 0.00 | 0.00 | 41 | 1015.7 |
| 20260905063050 | 83 | 246 | 1.0 | 8.0 | 0.00 | 0.00 | 0.00 | 43 | 1015.6 |
| 20260905061539 | 82 | 337 | 3.0 | 6.0 | 0.00 | 0.00 | 0.00 | 44 | 1015.4 |
| 20260905060035 | 82 | 57 | 3.0 | 10.0 | 0.00 | 0.00 | 0.00 | 47 | 1015.3 |
| 20260905054535 | 81 | 26 | 2.0 | 8.0 | 0.00 | 0.00 | 0.00 | 47 | 1015.4 |
| 20260905053024 | 80 | 308 | 2.0 | 4.0 | 0.00 | 0.00 | 0.00 | 50 | 1015.4 |
| 20260905051521 | 79 | 280 | 1.0 | 3.0 | 0.00 | 0.00 | 0.00 | 54 | 1015.4 |
| 20260905050022 | 78 | 279 | 0.0 | 3.0 | 0.00 | 0.00 | 0.00 | 55 | 1015.4 |
| 20260905044514 | 77 | 279 | 0.0 | 3.0 | 0.00 | 0.00 | 0.00 | 57 | 1015.2 |
| 20260905043008 | 76 | 328 | 1.0 | 3.0 | 0.00 | 0.00 | 0.00 | 57 | 1015.1 |
| 20260905041508 | 75 | 328 | 0.0 | 2.0 | 0.00 | 0.00 | 0.00 | 58 | 1014.7 |
| 20260905040004 | 76 | 328 | 0.0 | 1.0 | 0.00 | 0.00 | 0.00 | 57 | 1014.5 |
| 20260905034504 | 76 | 329 | 2.0 | 8.0 | 0.00 | 0.00 | 0.00 | 57 | 1014.4 |
| 20260905033003 | 76 | 51 | 0.0 | 2.0 | 0.00 | 0.00 | 0.00 | 59 | 1014.5 |
| 20260905031500 | 76 | 51 | 0.0 | 2.0 | 0.00 | 0.00 | 0.00 | 57 | 1014.4 |
| 20260905030104 | 76 | 51 | 0.0 | 1.0 | 0.00 | 0.00 | 0.00 | 58 | 1014.4 |
| 20260905024604 | 77 | 51 | 0.0 | 3.0 | 0.00 | 0.00 | 0.00 | 58 | 1014.4 |
| 20260905023058 | 77 | 52 | 0.0 | 3.0 | 0.00 | 0.00 | 0.00 | 58 | 1014.4 |
| 20260905021556 | 77 | 51 | 0.0 | 3.0 | 0.00 | 0.00 | 0.00 | 56 | 1014.5 |
| 20260905020056 | 77 | 61 | 1.0 | 4.0 | 0.00 | 0.00 | 0.00 | 55 | 1014.5 |
| 20260905014558 | 77 | 338 | 0.0 | 6.0 | 0.00 | 0.00 | 0.00 | 52 | 1014.5 |
| 20260905013058 | 78 | 337 | 0.0 | 4.0 | 0.00 | 0.00 | 0.00 | 50 | 1014.3 |
| 20260905011552 | 78 | 344 | 1.0 | 4.0 | 0.00 | 0.00 | 0.00 | 50 | 1014.3 |
| 20260905010051 | 78 | 331 | 3.0 | 6.0 | 0.00 | 0.00 | 0.00 | 49 | 1014.4 |
| 20260905004609 | 78 | 314 | 1.0 | 4.0 | 0.00 | 0.00 | 0.00 | 48 | 1014.4 |
| 20260905003055 | 78 | 32 | 1.0 | 5.0 | 0.00 | 0.00 | 0.00 | 47 | 1014.5 |
| 20260905001549 | 78 | 279 | 0.0 | 8.0 | 0.00 | 0.00 | 0.00 | 46 | 1014.4 |
| 20260905000050 | 78 | 164 | 0.0 | 8.0 | 0.00 | 0.00 | 0.00 | 46 | 1014.4 |
| 20260904234548 | 77 | 343 | 1.0 | 5.0 | 0.00 | 0.00 | 0.00 | 47 | 1014.5 |
| 20260904233046 | 77 | 328 | 0.0 | 1.0 | 0.00 | 0.00 | 0.00 | 48 | 1014.5 |
| 20260904231544 | 77 | 328 | 0.0 | 1.0 | 0.00 | 0.00 | 0.00 | 47 | 1014.5 |
| 20260904224540 | 78 | 328 | 0.0 | 0.0 | 0.00 | 0.00 | 0.00 | 46 | 1014.6 |
| 20260904223039 | 79 | 328 | 0.0 | 1.0 | 0.00 | 0.00 | 0.00 | 45 | 1014.7 |
| 20260904221537 | 79 | 328 | 0.0 | 2.0 | 0.00 | 0.00 | 0.00 | 44 | 1014.7 |
| 20260904220036 | 79 | 328 | 0.0 | 1.0 | 0.00 | 0.00 | 0.00 | 44 | 1014.8 |
| 20260904214535 | 79 | 329 | 0.0 | 2.0 | 0.00 | 0.00 | 0.00 | 43 | 1014.9 |
| 20260904213034 | 79 | 328 | 0.0 | 4.0 | 0.00 | 0.00 | 0.00 | 43 | 1014.9 |
| 20260904211535 | 79 | 328 | 0.0 | 4.0 | 0.00 | 0.00 | 0.00 | 43 | 1014.8 |
| 20260904210032 | 79 | 355 | 1.0 | 2.0 | 0.00 | 0.00 | 0.00 | 43 | 1014.8 |
| 20260904204532 | 79 | 355 | 0.0 | 3.0 | 0.00 | 0.00 | 0.00 | 44 | 1014.9 |
| 20260904203030 | 80 | 355 | 0.0 | 3.0 | 0.00 | 0.00 | 0.00 | 45 | 1015.0 |
| 20260904201530 | 80 | 355 | 0.0 | 3.0 | 0.00 | 0.00 | 0.00 | 45 | 1015.0 |
| 20260904200029 | 80 | 360 | 0.0 | 5.0 | 0.00 | 0.00 | 0.00 | 46 | 1015.0 |
| 20260904194529 | 80 | 326 | 0.0 | 3.0 | 0.00 | 0.00 | 0.00 | 46 | 1014.9 |
| 20260904193036 | 80 | 326 | 0.0 | 4.0 | 0.00 | 0.00 | 0.00 | 46 | 1015.0 |
| 20260904191528 | 80 | 325 | 0.0 | 2.0 | 0.00 | 0.00 | 0.00 | 46 | 1015.1 |
| 20260904190037 | 81 | 325 | 0.0 | 5.0 | 0.00 | 0.00 | 0.00 | 46 | 1015.0 |
| 20260904184528 | 81 | 324 | 0.0 | 1.0 | 0.00 | 0.00 | 0.00 | 45 | 1014.9 |
| 20260904183024 | 81 | 325 | 0.0 | 5.0 | 0.00 | 0.00 | 0.00 | 45 | 1014.8 |
| 20260904181523 | 82 | 330 | 0.0 | 5.0 | 0.00 | 0.00 | 0.00 | 45 | 1014.6 |
| 20260904180022 | 82 | 306 | 3.0 | 7.0 | 0.00 | 0.00 | 0.00 | 44 | 1014.5 |
| 20260904174520 | 82 | 6 | 1.0 | 4.0 | 0.00 | 0.00 | 0.00 | 45 | 1014.4 |
| 20260904173021 | 83 | 310 | 0.0 | 3.0 | 0.00 | 0.00 | 0.00 | 45 | 1014.1 |
| 20260904171515 | 83 | 308 | 1.0 | 6.0 | 0.00 | 0.00 | 0.00 | 44 | 1013.7 |
| 20260904170015 | 84 | 77 | 1.0 | 7.0 | 0.00 | 0.00 | 0.00 | 43 | 1013.6 |
| 20260904164517 | 84 | 324 | 3.0 | 12.0 | 0.00 | 0.00 | 0.00 | 40 | 1013.4 |
| 20260904163019 | 85 | 298 | 4.0 | 12.0 | 0.00 | 0.00 | 0.00 | 40 | 1013.4 |
| 20260904161513 | 85 | 299 | 6.0 | 15.0 | 0.00 | 0.00 | 0.00 | 41 | 1013.3 |
| 20260904160015 | 86 | 339 | 5.0 | 16.0 | 0.00 | 0.00 | 0.00 | 40 | 1013.3 |
| 20260904154512 | 87 | 24 | 3.0 | 12.0 | 0.00 | 0.00 | 0.00 | 40 | 1013.1 |
| 20260904153011 | 87 | 318 | 3.0 | 10.0 | 0.00 | 0.00 | 0.00 | 40 | 1013.1 |
| 20260904151511 | 87 | 343 | 3.0 | 11.0 | 0.00 | 0.00 | 0.00 | 41 | 1013.0 |
| 20260904150023 | 87 | 16 | 3.0 | 11.0 | 0.00 | 0.00 | 0.00 | 40 | 1012.9 |
| 20260904144509 | 87 | 48 | 3.0 | 10.0 | 0.00 | 0.00 | 0.00 | 40 | 1012.9 |
| 20260904143009 | 88 | 255 | 3.0 | 11.0 | 0.00 | 0.00 | 0.00 | 39 | 1012.9 |
| 20260904141510 | 88 | 355 | 5.0 | 12.0 | 0.00 | 0.00 | 0.00 | 39 | 1012.8 |
| 20260904140009 | 88 | 340 | 6.0 | 12.0 | 0.00 | 0.00 | 0.00 | 40 | 1012.8 |
| 20260904134513 | 88 | 350 | 6.0 | 15.0 | 0.00 | 0.00 | 0.00 | 39 | 1012.9 |
| 20260904133006 | 89 | 332 | 5.0 | 12.0 | 0.00 | 0.00 | 0.00 | 39 | 1012.8 |
| 20260904131507 | 88 | 321 | 5.0 | 10.0 | 0.00 | 0.00 | 0.00 | 40 | 1012.8 |
| 20260904130011 | 87 | 350 | 5.0 | 14.0 | 0.00 | 0.00 | 0.00 | 41 | 1012.9 |
| 20260904124506 | 88 | 72 | 3.0 | 11.0 | 0.00 | 0.00 | 0.00 | 40 | 1012.8 |
| 20260904123014 | 88 | 355 | 5.0 | 18.0 | 0.00 | 0.00 | 0.00 | 39 | 1013.1 |
| 20260904121504 | 89 | 279 | 6.0 | 14.0 | 0.00 | 0.00 | 0.00 | 38 | 1013.0 |
| 20260904120003 | 89 | 343 | 4.0 | 11.0 | 0.00 | 0.00 | 0.00 | 38 | 1013.1 |
| 20260904114502 | 88 | 360 | 5.0 | 14.0 | 0.00 | 0.00 | 0.00 | 38 | 1013.2 |
| 20260904113101 | 88 | 128 | 4.0 | 19.0 | 0.00 | 0.00 | 0.00 | 39 | 1013.2 |
| 20260904111559 | 88 | 338 | 6.0 | 20.0 | 0.00 | 0.00 | 0.00 | 39 | 1013.5 |
| 20260904110058 | 88 | 270 | 5.0 | 14.0 | 0.00 | 0.00 | 0.00 | 39 | 1013.5 |
| 20260904104558 | 88 | 312 | 8.0 | 19.0 | 0.00 | 0.00 | 0.00 | 41 | 1013.4 |
| 20260904103056 | 88 | 315 | 8.0 | 17.0 | 0.00 | 0.00 | 0.00 | 41 | 1013.4 |
| 20260904101555 | 88 | 333 | 5.0 | 15.0 | 0.00 | 0.00 | 0.00 | 44 | 1013.4 |
| 20260904100056 | 88 | 5 | 3.0 | 15.0 | 0.00 | 0.00 | 0.00 | 43 | 1013.5 |
| 20260904094552 | 86 | 304 | 5.0 | 20.0 | 0.00 | 0.00 | 0.00 | 46 | 1013.5 |
| 20260904093051 | 86 | 279 | 8.0 | 17.0 | 0.00 | 0.00 | 0.00 | 47 | 1013.6 |
| 20260904091545 | 86 | 324 | 3.0 | 15.0 | 0.00 | 0.00 | 0.00 | 47 | 1013.5 |
| 20260904090001 | 86 | 350 | 6.0 | 13.0 | 0.00 | 0.00 | 0.00 | 49 | 1013.5 |
| 20260904084547 | 87 | 46 | 3.0 | 11.0 | 0.00 | 0.00 | 0.00 | 50 | 1013.6 |